Regional Weather Roundup
Issued by NWS

Home | Current Version | Previous Version | Text Only | Print | Product List | Glossary Off
Versions: 1 2 3 4 5 6 7 8 9 10 11 12 13 14 15 16 17 18 19 20 21 22 23 24 25 26 27 28 29 30 31 32 33 34 35 36 37 38 39 40 41 42 43 44 45 46 47 48 49 50

811
ASUS43 KMPX 250301
RWRMN
WEATHER ROUNDUP FOR MINNESOTA
NATIONAL WEATHER SERVICE TWIN CITIES/CHANHASSEN MN
1000 PM CDT MON APR 24 2017


NOTE: "FAIR" INDICATES FEW OR NO CLOUDS BELOW 12,000 FEET WITH NO
SIGNIFICANT WEATHER AND/OR OBSTRUCTIONS TO VISIBILITY. N/A MEANS
CURRENT SKY AND/OR WEATHER CONDITIONS ARE NOT AVAILABLE.

MNZ060>063-068>070-250400-
   Twin Cities Metro

CITY           SKY/WX    TMP DP  RH WIND       PRES   REMARKS
TWIN CITIES    CLOUDY    66  31  27 S14       29.55S
ST PAUL        CLOUDY    64  34  32 S14       29.56S
CRYSTAL        CLOUDY    65  31  28 S13       29.53F
LAKEVILLE      CLOUDY    64  34  32 S9        29.56S
EDEN PRAIRIE   CLOUDY    66  32  28 S12       29.53S
SOUTH ST PAUL  CLOUDY    66  31  27 S10G18    29.56S
LAKE ELMO      CLOUDY    64  32  29 SE13      29.58F
$$
MNZ001>005-007-008-013>017-022>024-027-028-250400-
   Northwest Minnesota

CITY           SKY/WX    TMP DP  RH WIND       PRES   REMARKS
BEMIDJI        CLOUDY    40  39  95 E7        29.56S
HALLOCK        CLOUDY    34  30  86 NE13      29.72R WCI  25
ROSEAU         LGT SNOW  32  28  86 NE17      29.69R WCI  21
WARROAD        LGT SNOW  34  28  80 NE18G28   29.69R WCI  23
THIEF RVR FALL MIX PCPN  34  33  96 N16       29.64  WCI  24
CROOKSTON      MIX PCPN  36  36 100 N13       29.66R
FOSSTON        CLOUDY    39  39 100 N8        29.58R
DETROIT LAKES  CLOUDY    46  46 100 NW8       29.56R
MOORHEAD       CLOUDY    37  36  93 N18       29.61R
PARK RAPIDS    CLOUDY    49  45  86 E9        29.53S
MAHNOMEN       CLOUDY    41  41  97 N12       29.56R
$$
MNZ006-009>011-018-025>026-250400-
   North Central Minnesota

CITY           SKY/WX    TMP DP  RH WIND       PRES   REMARKS
BAUDETTE       MIX PCPN  34  32  92 NE10      29.64F WCI  26
FLAG ISLAND    MIX PCPN  30  28  93 NE13      29.71F WCI  20
INTL FALLS     LGT RAIN  36  33  89 E16       29.65F
WASKISH        CLOUDY    37  37 100 E9        29.60S
BIG FORK       LGT RAIN  37  36  93 E9        29.62F
LONGVILLE      DRIZZLE   41  39  93 NE7       29.57F
GRAND RAPIDS   CLOUDY    39  34  82 VRB5      29.62F
CRANE LAKE     RAIN      32  32 100 CALM      29.72
ORR            DRIZZLE   36  32  87 E3        29.65F
COOK           CLOUDY    36  34  93 NE3       29.66F
WALKER         DRIZZLE   42  40  93 E7        29.57F
$$
MNZ012-019>021-037-250400-
   Northeast Minnesota

CITY           SKY/WX    TMP DP  RH WIND       PRES   REMARKS
DULUTH         CLOUDY    37  32  82 E20G26    29.63F
ELY            LGT RAIN  36  32  87 E9        29.66F
HIBBING        CLOUDY    37  33  85 VRB3      29.64R
EVELETH        CLOUDY    37  33  84 E5        29.65R
DULUTH HARBOR  CLOUDY    37  36  93 NE28G33   29.68F
TWO HARBORS    CLOUDY    39  34  81 NE12G18   29.65F
SILVER BAY     CLOUDY    37  34  87 NE9G18    29.69S
GRAND MARAIS     N/A     43  32  65 NE10      29.75R
G MARAIS ARPRT CLOUDY    34  27  75 NE10      29.74R WCI  26
$$
MNZ029>031-032-039>041-046>048-054>057-064-250400-
   West Central Minnesota

CITY           SKY/WX    TMP DP  RH WIND       PRES   REMARKS
FERGUS FALLS   CLOUDY    41  41 100 NW17      29.56R FOG
WHEATON        CLOUDY    41  37  87 NW16G22   29.61R
ALEXANDRIA     CLOUDY    56  44  64 SW3       29.52R
ELBOW LAKE     CLOUDY    44  44 100 NW17      29.55R FOG
WADENA         CLOUDY    48  46  93 NE6       29.52S
GLENWOOD       CLOUDY    54  46  76 E6        29.52R
APPLETON       CLOUDY    50  45  81 NW17      29.55R
BENSON         CLOUDY    55  46  71 N16       29.54R
ORTONVILLE     CLOUDY    45  39  81 NW18G25   29.57R
MADISON        CLOUDY    50  45  81 NW16G26   29.55R
WILLMAR        CLOUDY    61  45  55 SE7       29.51F
$$
MNZ033>034-036-042>043-049>051-058-059-250400-
   Central Minnesota

CITY           SKY/WX    TMP DP  RH WIND       PRES   REMARKS
ST CLOUD       CLOUDY    58  40  51 SE7       29.53R
SAUK CENTRE    CLOUDY    54  43  67 E9        29.52S
PAYNESVILLE    CLOUDY    56  45  64 E6        29.52F
AITKIN         CLOUDY    43  36  75 CALM      29.60R
PINE RIVER     DRIZZLE   45  45 100 E5        29.60F
BRAINERD       LGT RAIN  50  43  77 E6        29.55R
STAPLES        DRIZZLE   48  45  87 CALM      29.52F
LONG PRAIRIE   DRIZZLE   54  43  66 E6        29.53S
LITTLE FALLS   CLOUDY    54  39  58 CALM      29.54S
LITCHFIELD     LGT RAIN  63  45  51 S3        29.53R
BUFFALO        CLOUDY    62  33  33 SE5       29.54S
MAPLE LAKE     CLOUDY    61  40  46 SE6       29.54S
HUTCHINSON     LGT RAIN  60  46  59 S6        29.55S
$$
MNZ037-044-045-052-053-250400-
   East Central Minnesota

CITY           SKY/WX    TMP DP  RH WIND       PRES   REMARKS
PRINCETON      CLOUDY    63  36  36 SE6       29.55R
MORA           CLOUDY    55  34  44 SE5       29.56S
CAMBRIDGE      CLOUDY    64  43  45 SE3       29.53S
RUSH CITY      CLOUDY    62  33  34 SE7       29.56S
MOOSE LAKE     CLOUDY    36  32  87 NE7       29.59F
HINCKLEY       CLOUDY    46  36  66 N9        29.57S
CLOQUET        CLOUDY    36  32  87 E10G17    29.62S
MCGREGOR       CLOUDY    37  36  93 E9        29.60S
$$
MNZ071>073-080-081-089-090-097-098-250400-
   Southwest Minnesota

CITY           SKY/WX    TMP DP  RH WIND       PRES   REMARKS
MONTEVIDEO     CLOUDY    55  46  71 N13       29.52R
GRANITE FALLS  CLOUDY    59  49  69 W13       29.52R
CANBY          CLOUDY    50  45  81 W16G23    29.56R
MARSHALL       CLOUDY    57  46  66 NW13      29.52R
REDWOOD FALLS  CLOUDY    60  44  55 S12       29.50S
OLIVIA         CLOUDY    61  43  51 S10       29.50S
PIPESTONE      CLEAR     55  39  54 NW12G17   29.54R
WINDOM         MOCLDY    57  46  67 E6        29.51S
WORTHINGTON    CLOUDY    55  47  74 CALM      29.52R
JACKSON        CLOUDY    61  41  48 S8        29.52S
TRACY          CLOUDY    61  44  53 SW3       29.52R
SLAYTON        MOCLDY    57  43  58 SW6       29.52R
$$
MNZ065>067-074>077-082>085-091>093-250400-
   South Central Minnesota

CITY           SKY/WX    TMP DP  RH WIND       PRES   REMARKS
MANKATO        CLOUDY    65  32  29 S14       29.56R
NEW ULM        LGT RAIN  57  45  62 SE9       29.53F
ST JAMES       CLOUDY    55  50  82 NE7       29.53F
FAIRMONT       CLOUDY    62  36  37 S13       29.53F
GLENCOE        CLOUDY    65  40  40 S8        29.55R
FARIBAULT      CLOUDY    66  32  28 SE12      29.57S
OWATONNA       CLOUDY    64  28  25 SE12      29.57F
WASECA         CLOUDY    63  34  34 S6        29.58R
ALBERT LEA     CLOUDY    61  28  29 S10       29.57F
$$
MNZ078>079-086>088-094>096-250400-
   Southeast Minnesota

CITY           SKY/WX    TMP DP  RH WIND       PRES   REMARKS
ROCHESTER      CLOUDY    60  35  39 S10       29.62S
RED WING       CLOUDY    66  27  22 SE8G17    29.60F
STANTON        CLOUDY    68  29  23 S13G21    29.56F
DODGE CENTER   CLOUDY    57  37  47 SE9       29.60F
WINONA         CLOUDY    61  34  36 CALM      29.63S
AUSTIN         CLOUDY    61  30  31 SE6       29.60S
PRESTON        CLOUDY    60  30  32 S9        29.63S
$$
ABBREVIATIONS USED IN REMARKS
   TC - TEMPERATURES IN CELSIUS
  WCI - WIND CHILL INDEX
   HX - HEAT INDEX
  VSB - VISIBILITY
$$




USA.gov is the U.S. government's official web portal to all federal, state and local government web resources and services.